sat.trackr.live / text

‹ back to catalog

HULIANWANG DIGUI-98

NORAD 66414 · 2025-258C

PAYLOAD ACTIVE UNKNOWN

§ Identity

Operator
Country
PRC
Launch date
2025-11-10
Launch site
WSC
Launch vehicle
Mass (kg)
RCS (m²)

External: N2YO · Heavens-Above · Gunter

§ Orbital elements

Epoch: 2026-09-20T20:36:57.196512Z

Period
108.33 min
Inclination
50.0058°
Eccentricity
0.0000179
Mean motion
13.29327125 rev/d
Perigee alt
1,149.2 km
Apogee alt
1,149.4 km
Semi-major
7,527.4 km
B*
8.9280e-5
RAAN
312.7439°
Arg perigee
68.5285°
Mean anomaly
291.5606°
Rev number
4,245

§ Raw data

HULIANWANG DIGUI-981 66414U 25258C   26263.85899533 -.00000083  00000+0  89280-4 0  99942 66414  50.0058 312.7439 0000179  68.5285 291.5606 13.29327125 42450

JSON: /api/v1/satellites/66414 · /tle

For live sub-satellite position, see the globe view (requires WebGL).

§ Visibility from observer

Set your observer location to see the next 7 days of passes ≥ 10°. The values pass through the URL so the page stays shareable.

No JS? Fill the form by hand. The geolocation button needs JavaScript.